Theta_e
288 287 286 285 284 283 283 283 283 282 281 281 281 281 281 281 281 282 282 281 282 282
286 285 284 283 283 282 282 281 281 280 279 279 279 279 279 279 279 280 280 280 281 281
284 284 283 282 280 280 280 280 279 278 278 278 277 277 277 277 278 278 279 279 279 279
283 282 281 279 279 279 279 278 277 276 276 275 275 275 275 275 275 275 275 276 276 276
281 279 278 277 278 278 276 276 275 275 274 273 273 273 273 272 273 272 272 272 272 272
278 277 277 277 276 276 275 274 274 273 272 272 272 271 271 271 271 270 270 271 271 271
277 276 276 276 275 274 273 272 272 272 271 270 270 271 271 271 270 270 271 272 272 272
276 276 275 273 273 272 271 271 270 270 269 270 270 270 270 271 271 271 272 272 272 273
275 273 273 272 271 270 269 269 269 269 269 269 270 272 273 273 272 272 271 271 272 273
273 271 271 270 269 268 268 269 268 268 269 269 269 272 273 273 272 271 271 271 271 272
271 270 269 268 267 267 268 267 268 268 268 268 269 272 272 273 272 271 271 272 272 273
270 268 267 266 266 267 267 267 267 267 267 266 266 270 272 273 271 272 272 273 274 274
269 267 266 266 266 267 266 266 267 267 267 266 266 270 273 274 273 271 273 274 275 275
267 265 265 265 266 264 264 266 264 265 267 268 270 270 273 275 274 273 273 272 271 272
Wind_Speed
13 8 7 8 6 5 5 5 5 5 7 9 9 9 10 9 9 11 9 13 11 10
13 12 10 10 8 6 7 6 5 6 8 9 10 10 11 8 11 11 11 11 12 11
14 12 10 10 10 9 7 6 6 7 9 9 9 10 10 10 11 12 10 10 13 13
13 13 11 10 10 8 7 6 7 8 8 9 10 9 10 12 12 13 14 14 15 16
14 13 12 11 10 8 8 7 7 7 8 9 9 10 11 11 11 13 15 16 16 16
15 14 14 12 11 9 7 6 6 7 9 9 9 10 10 11 12 13 15 15 17 16
15 14 12 11 9 8 6 5 7 8 9 9 9 10 10 11 12 14 15 16 16 16
14 13 12 11 9 7 6 6 7 8 9 8 8 7 8 11 13 15 16 16 17 17
14 13 12 11 9 8 7 7 7 8 9 8 6 11 14 15 13 15 16 17 16 17
12 11 11 10 9 7 7 7 8 8 7 8 9 13 14 17 12 15 15 17 17 17
12 12 11 9 9 8 7 8 7 6 5 8 8 13 15 17 14 14 17 18 19 20
11 11 11 10 9 7 6 6 6 5 6 8 9 13 15 16 12 15 18 17 18 20
12 10 9 9 8 6 4 6 5 5 5 8 8 12 15 17 10 15 15 18 17 23
13 13 11 8 6 6 6 5 4 5 5 8 7 7 16 19 12 12 15 15 15 14
Wind_Direction
190 190 194 197 202 212 229 248 271 287 292 285 289 288 284 281 280 281 278 276 272 276
186 186 186 187 193 208 224 235 252 269 279 281 284 287 288 283 285 286 284 278 275 274
180 181 183 180 195 204 215 232 252 262 264 273 282 285 284 282 279 279 276 276 275 273
175 176 180 184 192 200 207 220 237 253 271 275 278 280 277 275 279 280 281 280 279 279
169 170 179 185 186 189 206 217 237 254 262 266 267 271 275 281 285 284 283 282 283 281
173 173 179 182 183 190 203 212 232 243 252 260 268 273 276 277 280 280 279 280 280 281
177 173 175 172 178 188 199 216 234 241 256 264 269 275 281 286 286 285 282 283 281 279
170 165 161 165 170 172 192 219 231 250 257 260 265 270 282 287 289 290 290 289 288 282
162 159 165 162 162 172 201 218 231 242 251 265 269 279 287 288 293 298 297 294 289 287
159 158 159 155 162 180 204 214 232 239 249 271 279 280 290 303 302 297 293 291 288 286
154 151 154 162 173 185 203 218 231 244 261 267 276 286 304 312 304 294 288 285 285 284
158 153 157 172 179 186 203 229 238 242 258 270 278 292 316 312 302 293 293 290 288 289
154 157 164 166 172 178 204 231 243 258 268 269 271 301 317 317 303 300 303 301 305 307
154 154 159 160 164 174 206 226 236 259 274 262 279 310 314 315 313 308 310 318 314 311